Temperature
29 29 29 29 29 28 27 27 26 26 26 26 25 24 23 22 21 20 19 18 17 16 15 14 13 12 12 11 11 10 10 9 9 9 9 9 8 8 8 8 8 8 8 8
28 29 29 28 29 28 28 27 27 26 26 26 25 24 23 21 20 19 18 17 16 15 14 13 13 12 11 11 10 10 9 9 9 9 8 8 8 8 8 8 8 8 8 8
27 28 28 27 28 28 28 28 27 26 25 25 24 23 22 21 20 18 17 16 15 14 13 13 12 12 11 11 10 10 9 9 9 8 8 8 8 8 8 8 8 8 8 8
27 27 25 27 29 28 27 27 27 26 25 25 24 23 21 19 18 17 16 15 14 14 13 13 12 11 11 10 10 9 9 9 8 8 8 8 8 8 8 8 8 8 8 7
26 26 26 27 27 27 26 26 26 25 25 24 23 22 20 18 18 17 16 15 14 13 13 12 11 11 10 10 9 9 9 8 8 8 8 8 8 8 8 8 7 7 7 7
26 25 25 27 27 27 26 25 25 25 24 23 22 22 21 19 18 16 15 14 13 13 12 12 11 10 10 9 9 9 8 8 8 8 8 8 8 8 8 8 7 7 7 7
26 25 26 27 27 27 25 23 24 24 23 22 21 20 19 18 17 16 15 14 13 12 12 11 11 10 10 9 9 8 8 8 8 8 8 8 8 8 8 8 7 7 7 7
26 25 25 27 27 26 25 24 24 23 22 22 20 20 19 18 17 15 14 14 13 12 11 11 10 10 9 9 9 8 8 8 8 8 8 8 8 8 8 8 7 7 7 7
27 26 26 26 26 26 25 24 23 23 22 21 20 19 18 17 16 15 14 13 12 12 11 11 10 10 9 9 8 8 8 8 8 8 8 8 8 8 8 7 7 7 7 7
26 27 27 27 26 26 25 24 23 22 21 20 20 19 18 17 15 14 14 13 12 11 11 10 10 10 9 9 8 8 8 8 8 8 8 8 8 8 7 7 7 7 7 6
27 27 27 27 26 26 25 24 23 22 21 20 19 18 17 16 15 14 13 13 12 11 11 10 10 9 9 9 8 8 8 8 8 8 8 8 8 8 8 7 7 7 6 6
27 27 26 26 26 25 24 24 23 22 21 20 19 18 17 16 15 14 13 12 12 11 10 10 10 9 9 9 8 8 8 8 8 8 8 8 8 8 8 7 7 7 6 6
27 27 26 26 26 25 24 24 23 21 20 19 18 17 16 15 14 14 13 12 11 11 10 10 10 9 9 9 8 8 8 8 8 8 8 8 8 8 8 8 7 7 7 6
27 26 26 25 25 25 24 23 23 21 20 19 18 17 16 15 14 13 13 12 11 11 10 10 9 9 9 9 8 8 8 8 8 8 8 8 8 8 8 8 7 7 7 7
26 26 25 25 25 24 24 23 22 21 20 19 18 17 16 15 14 13 12 12 11 10 10 10 9 9 9 9 9 8 8 8 9 9 9 9 9 9 8 8 7 7 7 7
25 25 25 25 25 24 23 23 22 21 21 20 18 17 16 15 14 13 12 11 11 10 10 9 9 9 9 9 9 9 8 9 9 9 9 9 9 9 8 8 8 8 7 7
24 24 24 24 24 24 23 23 22 21 21 19 18 17 15 14 13 13 12 11 10 10 10 9 9 9 9 9 9 9 9 9 9 9 9 9 9 9 9 8 8 8 8 7
23 23 23 23 23 23 23 22 22 21 20 19 17 16 15 14 13 12 11 11 10 10 10 9 9 9 9 9 9 9 9 9 9 9 9 9 9 9 9 8 8 8 8 8
21 21 22 22 22 22 22 22 21 20 19 18 17 16 14 14 13 12 11 11 10 10 10 10 10 9 9 9 9 9 9 9 10 10 10 10 9 9 9 9 8 8 8 8
19 20 20 20 21 21 21 20 20 19 18 17 16 15 14 13 12 12 11 11 11 10 10 10 9 9 9 9 10 9 9 9 10 10 10 10 10 9 9 9 8 8 8 8
18 18 18 18 19 19 19 19 18 18 17 16 15 14 14 13 12 12 11 11 11 11 10 10 9 9 9 10 10 9 9 9 10 10 10 10 10 9 9 9 9 9 8 8
16 16 16 17 17 17 17 17 17 17 16 15 15 14 13 13 12 12 11 11 11 10 10 9 9 9 9 10 9 9 9 9 10 10 10 10 10 9 9 9 9 9 9 9
14 15 15 15 16 16 16 16 16 16 15 15 15 14 13 13 12 12 12 11 11 11 10 9 9 9 9 9 9 9 9 9 9 10 10 10 10 10 10 10 9 9 9 9
14 14 14 14 15 15 15 16 16 15 15 15 14 14 13 13 12 12 12 11 11 11 10 9 9 9 9 9 9 9 9 9 9 9 10 10 10 10 10 10 10 10 9 9
13 13 13 14 14 15 15 16 16 15 15 15 14 14 13 12 12 12 12 11 11 10 10 9 9 9 9 8 8 9 9 9 9 9 9 10 10 10 10 10 10 10 10 9
13 13 13 13 14 14 14 15 15 15 15 15 14 14 13 12 12 11 11 11 10 10 9 9 8 8 8 8 8 8 8 8 8 9 9 9 9 9 9 10 10 10 9 10
13 13 13 14 14 14 14 15 15 15 15 14 14 14 13 12 12 11 10 10 10 9 9 9 8 8 8 8 8 8 8 8 8 8 9 9 9 9 9 9 10 10 10 10
Wind_Speed
11 9 7 8 8 6 6 6 8 10 11 10 11 11 10 10 10 11 10 11 11 11 10 10 10 10 11 11 11 11 12 12 12 11 11 11 11 11 11 12 14 11 11 12
13 12 10 11 9 5 5 7 8 10 10 10 11 11 10 10 10 10 10 12 13 12 12 11 11 11 11 11 11 11 12 13 12 12 12 12 12 12 12 11 11 11 12 13
13 11 12 9 4 2 5 7 9 10 9 10 11 11 10 9 7 9 11 12 12 13 12 10 10 10 11 11 12 12 12 13 13 13 13 13 15 14 13 12 12 12 12 12
12 13 12 5 1 2 4 6 8 7 8 10 10 10 8 8 8 9 11 12 12 12 13 12 11 11 11 13 13 13 13 13 13 14 14 13 13 14 13 11 11 12 12 13
10 13 9 2 2 1 4 7 5 5 8 10 11 11 6 8 8 8 10 11 11 12 13 12 12 12 12 13 13 13 14 14 15 15 15 15 15 14 13 11 12 12 12 12
10 13 15 9 5 3 4 1 7 7 8 10 10 9 6 9 9 9 10 10 11 12 12 12 12 12 13 14 14 14 14 15 15 15 15 15 15 13 12 10 11 12 12 11
11 13 8 6 5 3 6 3 4 7 7 8 7 7 8 9 9 9 10 11 11 11 11 11 11 11 12 14 14 14 15 15 15 14 14 14 12 11 11 11 11 11 11 11
9 9 4 4 3 6 4 2 4 6 6 6 6 7 8 8 8 9 10 11 12 10 10 10 11 11 13 13 14 14 15 16 16 15 15 13 11 11 11 10 11 10 9 9
5 6 2 5 6 3 2 3 4 5 5 5 6 7 8 8 8 9 10 11 11 11 11 11 11 11 13 13 14 15 15 16 16 16 14 12 11 11 10 8 7 8 7 7
7 9 9 9 8 4 3 3 3 3 3 4 6 7 7 7 8 8 9 10 10 12 12 12 12 12 11 12 13 14 15 15 15 14 14 11 9 8 7 7 7 7 7 7
12 10 9 9 7 5 3 3 4 3 3 4 5 6 6 6 7 7 9 9 10 11 12 13 12 12 12 12 13 15 15 15 14 13 12 10 9 6 6 5 4 5 6 6
9 6 7 8 7 5 5 6 6 5 4 4 4 5 5 6 6 7 8 9 10 11 12 13 13 13 12 12 13 14 14 14 12 12 10 9 9 8 5 5 5 5 5 5
10 9 9 7 5 5 6 7 6 6 6 5 4 4 5 5 6 7 8 10 10 11 12 12 12 12 12 12 13 13 14 13 11 11 10 9 9 8 7 4 6 6 6 5
10 8 9 9 9 8 8 8 7 6 6 6 4 3 4 5 6 7 9 9 10 11 12 12 12 12 12 13 13 14 14 13 11 10 9 8 8 8 6 6 4 2 2 3
11 10 9 9 9 9 8 8 8 8 8 7 5 4 4 5 6 7 8 9 10 11 11 11 12 12 13 14 14 14 13 11 10 11 9 8 8 7 6 6 5 3 1 2
12 12 10 10 10 10 9 10 10 9 8 6 5 4 4 4 5 6 7 8 9 11 11 11 11 12 13 13 14 12 11 13 12 10 8 8 7 7 6 6 5 3 2 0
9 10 10 10 11 10 10 10 10 9 8 6 5 4 3 4 6 6 7 8 9 9 9 8 10 12 13 12 12 11 11 12 12 9 8 7 7 7 6 5 4 3 2 1
9 10 11 11 11 10 9 10 10 9 7 6 5 4 4 5 6 6 7 8 9 9 7 8 10 12 12 11 10 11 10 10 9 8 7 6 7 6 6 5 5 4 2 0
11 12 12 12 11 9 8 7 6 6 6 5 5 4 4 5 5 5 6 8 9 8 7 9 11 11 11 11 11 10 10 10 9 7 6 7 6 5 5 5 5 5 4 3
13 14 14 13 12 9 7 4 2 3 4 5 5 5 5 5 5 5 6 8 5 4 7 9 10 9 10 11 13 10 10 9 9 7 6 7 7 6 5 5 5 5 4 3
15 15 15 15 13 10 8 6 3 3 5 5 6 6 6 6 6 6 6 7 2 4 6 10 7 6 9 11 13 9 9 8 8 7 6 6 7 7 6 5 5 5 4 3
15 15 15 14 13 11 9 6 5 5 6 7 8 8 7 7 7 7 7 5 1 4 5 7 5 7 11 13 8 8 9 9 8 7 6 6 6 6 5 6 5 4 3 3
14 14 14 14 14 13 12 10 9 8 9 10 10 10 10 7 6 6 6 1 1 2 4 4 5 8 13 9 7 8 8 9 8 7 6 5 5 5 5 5 5 5 4 3
15 15 15 15 15 15 14 14 12 9 11 12 12 11 10 8 7 7 4 5 5 1 3 1 2 8 10 6 5 6 7 8 8 8 7 6 5 5 6 5 5 5 5 6
17 17 17 16 16 15 13 13 12 11 12 12 14 13 11 9 8 5 3 5 7 3 3 4 6 7 6 5 5 6 6 6 8 8 7 7 7 6 6 6 6 6 6 6
15 15 15 14 14 14 15 14 13 11 11 11 11 11 11 9 8 6 4 5 5 4 3 2 2 4 3 4 5 6 6 7 7 7 8 8 8 7 7 7 8 7 7 6
16 14 12 13 12 12 12 11 10 9 8 8 9 9 9 8 8 7 7 4 3 2 2 2 2 2 3 4 5 5 6 6 7 7 8 8 8 8 8 8 7 6 6 7
Wind_Direction
315 317 317 317 317 324 325 325 317 330 331 11 20 2 356 350 349 341 342 344 342 337 334 331 328 326 321 319 316 316 313 308 307 305 302 298 294 293 290 287 287 285 284 281
309 314 296 294 292 285 300 305 310 318 330 23 8 357 348 341 334 333 343 340 335 332 330 328 325 322 322 319 319 316 310 309 307 302 299 297 295 291 289 287 287 284 281 279
303 304 297 311 316 289 319 325 324 321 346 10 352 344 338 335 345 350 340 335 334 332 327 323 322 326 323 321 319 315 311 308 305 303 301 299 299 299 295 293 291 287 282 277
295 303 301 309 276 327 336 326 318 325 6 357 343 343 4 48 25 348 339 338 335 327 324 324 329 327 325 321 320 317 314 311 310 306 305 303 300 297 294 292 290 287 282 277
293 295 296 281 233 233 339 319 345 10 359 345 346 328 83 50 11 354 348 340 330 324 323 325 325 326 325 320 319 317 316 315 313 310 308 305 302 300 297 294 291 287 282 277
279 292 298 313 120 92 327 342 47 15 357 345 336 323 347 9 360 358 345 334 328 326 325 326 328 327 321 318 319 319 319 316 313 310 307 304 301 299 299 295 292 291 287 282
272 282 300 85 116 280 311 50 14 358 350 337 346 322 325 339 352 349 337 332 332 330 328 328 326 324 319 320 322 323 319 314 310 307 304 299 300 301 300 298 295 292 291 287
277 286 323 115 301 342 18 25 337 338 336 337 325 317 326 338 345 341 335 335 336 332 329 327 327 326 323 324 326 322 318 315 313 309 306 307 306 303 302 301 300 298 298 297
316 315 269 252 292 323 326 300 312 323 331 331 317 319 327 336 341 336 334 335 333 330 327 328 330 331 325 326 326 323 320 317 314 312 308 306 306 306 307 307 308 308 307 308
289 288 292 294 296 276 253 249 280 304 309 306 307 316 325 334 334 333 334 331 332 329 328 328 329 329 327 327 327 323 320 317 316 314 312 313 312 308 309 312 316 318 321 323
275 278 281 283 287 273 253 223 235 254 268 283 297 307 320 328 332 333 328 329 330 329 328 327 329 328 330 331 328 324 321 319 318 315 314 315 314 311 307 309 305 306 319 326
305 316 297 292 284 250 230 232 233 240 257 267 282 300 314 320 327 325 325 329 329 329 327 327 326 327 330 333 330 325 321 321 320 318 320 320 320 318 288 268 263 260 276 298
300 296 288 290 278 253 240 239 228 217 229 248 264 283 302 311 320 325 327 329 329 328 326 324 327 328 333 335 329 322 319 317 317 317 321 324 324 323 324 299 246 253 267 278
301 286 277 275 277 266 248 242 232 219 217 226 243 262 287 306 318 324 325 326 327 326 322 326 330 332 338 334 326 322 320 316 314 318 322 324 324 327 328 327 325 308 234 229
306 291 277 267 259 259 246 234 230 230 225 221 224 241 275 299 311 317 321 327 327 322 326 330 329 333 338 331 326 324 323 321 322 321 320 323 325 332 333 334 335 330 345 159
298 291 284 279 270 261 250 234 233 239 238 228 228 239 265 287 302 312 322 326 326 325 327 327 329 336 334 327 326 324 321 315 314 319 322 328 337 339 339 339 338 342 333 310
313 311 306 297 285 269 253 242 235 236 237 226 220 225 250 280 297 309 321 326 323 315 320 330 337 337 327 326 331 325 322 321 321 324 331 338 341 343 343 344 341 340 351 4
333 324 317 310 300 287 268 249 236 228 220 218 210 215 238 268 290 310 318 320 313 310 331 346 346 327 321 334 336 323 319 321 327 334 335 341 341 344 348 347 346 347 347 280
353 345 338 328 317 303 289 266 242 217 194 195 208 221 238 260 281 298 308 310 305 312 346 346 334 318 330 345 343 320 319 324 330 332 336 340 342 351 355 355 359 357 356 355
6 359 352 344 340 333 322 309 264 196 183 191 208 225 240 257 273 286 297 295 303 348 340 330 319 323 338 341 336 318 320 329 333 339 347 348 347 348 353 1 2 1 358 355
6 3 359 354 348 341 330 316 280 222 197 200 216 232 244 256 265 272 281 290 352 47 332 306 303 344 342 332 313 316 331 338 337 342 353 353 350 353 2 9 5 2 358 1
357 354 351 347 342 334 322 303 276 246 215 206 218 227 234 241 252 259 256 260 305 69 327 314 352 356 335 321 316 330 339 341 340 347 356 360 359 5 7 5 6 4 356 358
340 337 335 332 327 318 305 288 267 250 234 224 219 220 227 232 246 261 268 208 126 56 312 329 355 330 322 318 328 342 344 344 347 350 353 357 3 8 11 6 6 13 16 27
323 320 318 315 310 304 296 285 271 255 244 234 229 220 218 224 225 230 236 140 139 132 303 99 290 307 306 312 338 348 348 350 350 349 351 353 358 8 11 11 7 13 25 38
311 309 305 301 297 293 289 282 271 255 247 241 233 221 216 219 228 227 192 159 150 185 280 201 217 274 299 334 352 352 352 359 349 342 346 352 357 10 14 15 15 13 29 41
302 298 297 292 290 287 287 284 278 268 255 245 235 226 215 207 203 194 194 202 186 191 260 275 259 265 325 351 360 359 359 355 351 354 357 354 358 10 15 15 22 26 32 35
295 294 291 291 297 299 302 301 297 291 279 262 244 227 215 202 192 191 199 203 182 198 259 285 303 342 4 9 7 6 8 6 360 357 356 358 4 8 11 15 18 23 33 35
Height
1475 1470 1471 1473 1473 1475 1480 1484 1491 1489 1487 1485 1487 1489 1491 1493 1494 1495 1495 1494 1493 1492 1489 1487 1484 1481 1478 1475 1471 1468 1464 1460 1456 1452 1448 1445 1441 1438 1435 1432 1430 1427 1425 1423
1480 1473 1472 1472 1470 1473 1477 1479 1482 1484 1485 1484 1487 1489 1491 1492 1492 1493 1493 1492 1491 1489 1486 1484 1481 1478 1474 1471 1467 1463 1459 1455 1451 1447 1443 1439 1436 1432 1429 1426 1423 1420 1418 1416
1487 1476 1474 1481 1473 1473 1475 1475 1479 1485 1485 1484 1487 1489 1490 1490 1490 1491 1491 1490 1488 1486 1483 1480 1477 1474 1470 1467 1463 1458 1454 1450 1446 1442 1437 1433 1430 1426 1422 1419 1416 1413 1410 1407
1486 1484 1499 1479 1467 1469 1474 1476 1476 1478 1482 1485 1487 1488 1488 1489 1490 1491 1490 1488 1486 1483 1480 1477 1474 1470 1466 1463 1458 1454 1449 1445 1440 1436 1432 1427 1423 1419 1416 1412 1409 1405 1402 1399
1489 1489 1484 1475 1470 1471 1476 1479 1476 1480 1484 1485 1486 1487 1488 1489 1489 1489 1487 1486 1483 1480 1477 1474 1470 1466 1462 1458 1454 1449 1445 1440 1435 1430 1426 1421 1417 1413 1409 1405 1401 1398 1394 1391
1486 1493 1494 1475 1468 1471 1476 1481 1482 1482 1484 1486 1486 1487 1486 1488 1487 1486 1485 1483 1480 1477 1474 1470 1467 1462 1458 1454 1450 1445 1440 1435 1429 1425 1420 1415 1411 1407 1403 1399 1395 1391 1387 1384
1484 1486 1476 1469 1470 1472 1482 1487 1483 1483 1484 1485 1486 1488 1488 1486 1485 1484 1482 1480 1477 1474 1471 1467 1463 1459 1454 1450 1446 1441 1435 1429 1424 1419 1414 1410 1405 1401 1397 1393 1389 1385 1381 1377
1477 1485 1485 1471 1469 1474 1479 1479 1480 1482 1483 1484 1485 1485 1485 1484 1483 1481 1480 1477 1474 1471 1467 1464 1460 1455 1451 1446 1441 1436 1430 1425 1419 1414 1409 1405 1400 1396 1392 1388 1384 1380 1376 1372
1472 1477 1472 1470 1470 1472 1475 1477 1479 1480 1482 1483 1483 1483 1483 1482 1481 1479 1477 1474 1471 1468 1464 1460 1457 1452 1447 1442 1437 1431 1426 1420 1414 1409 1405 1401 1396 1392 1388 1384 1380 1376 1372 1369
1468 1466 1466 1467 1467 1469 1471 1474 1477 1479 1480 1480 1481 1481 1480 1479 1478 1476 1474 1471 1468 1465 1461 1457 1453 1449 1444 1439 1433 1428 1422 1416 1410 1405 1401 1397 1392 1388 1384 1380 1376 1373 1370 1367
1463 1462 1462 1463 1464 1466 1468 1471 1473 1475 1477 1478 1478 1478 1478 1477 1475 1473 1471 1468 1465 1462 1458 1454 1450 1446 1441 1436 1430 1424 1419 1413 1407 1402 1398 1393 1389 1385 1381 1377 1374 1371 1367 1365
1461 1459 1461 1462 1463 1464 1466 1468 1471 1473 1474 1475 1475 1475 1475 1474 1472 1470 1468 1465 1462 1459 1455 1451 1447 1443 1438 1433 1427 1422 1416 1410 1405 1400 1396 1391 1387 1383 1378 1375 1372 1368 1366 1364
1455 1456 1457 1458 1459 1461 1463 1465 1467 1469 1471 1472 1472 1472 1472 1471 1469 1467 1465 1462 1459 1456 1452 1448 1444 1440 1435 1430 1424 1419 1414 1409 1404 1399 1395 1390 1385 1381 1376 1373 1370 1367 1365 1363
1454 1454 1455 1456 1457 1458 1459 1461 1463 1465 1467 1468 1469 1469 1468 1468 1466 1464 1462 1459 1456 1453 1449 1446 1442 1437 1432 1427 1422 1417 1412 1407 1403 1398 1394 1389 1384 1380 1376 1372 1369 1366 1364 1362
1452 1451 1452 1452 1453 1454 1456 1457 1459 1461 1463 1464 1465 1465 1465 1464 1463 1461 1459 1456 1453 1450 1447 1443 1439 1435 1430 1425 1420 1415 1410 1406 1402 1397 1393 1389 1384 1380 1376 1372 1369 1366 1363 1362
1450 1449 1448 1449 1449 1451 1452 1453 1455 1457 1459 1460 1461 1462 1461 1461 1460 1458 1456 1453 1450 1447 1444 1440 1436 1432 1427 1423 1418 1413 1409 1405 1401 1397 1393 1389 1385 1380 1376 1372 1369 1366 1364 1362
1448 1447 1447 1446 1446 1446 1447 1449 1451 1453 1455 1456 1457 1458 1458 1457 1456 1455 1453 1450 1447 1444 1441 1438 1434 1429 1425 1421 1417 1412 1408 1405 1401 1397 1393 1389 1385 1381 1377 1373 1370 1367 1365 1363
1448 1447 1446 1445 1444 1443 1444 1445 1446 1448 1451 1452 1454 1454 1454 1454 1453 1451 1449 1447 1444 1442 1439 1435 1431 1427 1423 1420 1415 1411 1408 1405 1401 1397 1394 1390 1386 1382 1378 1374 1371 1369 1366 1365
1447 1446 1445 1443 1442 1442 1441 1442 1443 1445 1447 1449 1450 1451 1451 1451 1450 1448 1446 1443 1441 1439 1436 1432 1428 1425 1422 1418 1414 1410 1407 1405 1401 1398 1394 1390 1386 1383 1379 1376 1373 1370 1368 1366
1447 1445 1444 1443 1442 1441 1441 1441 1442 1443 1445 1446 1447 1448 1448 1447 1447 1445 1443 1440 1439 1436 1433 1429 1426 1423 1420 1416 1413 1410 1407 1405 1402 1398 1395 1392 1388 1384 1381 1377 1374 1371 1369 1367
1448 1446 1444 1443 1442 1442 1442 1441 1442 1442 1443 1444 1445 1445 1445 1444 1443 1442 1440 1438 1436 1432 1430 1427 1424 1421 1418 1415 1412 1409 1407 1405 1402 1399 1396 1393 1390 1386 1383 1380 1376 1373 1370 1368
1450 1448 1446 1444 1443 1442 1441 1440 1440 1439 1439 1438 1439 1440 1440 1440 1439 1438 1436 1434 1432 1429 1427 1425 1422 1419 1416 1413 1411 1409 1407 1405 1402 1400 1397 1394 1391 1388 1385 1382 1379 1376 1373 1370
1451 1448 1445 1444 1442 1440 1438 1437 1436 1435 1433 1433 1432 1433 1434 1433 1433 1434 1433 1431 1428 1425 1423 1422 1419 1417 1414 1412 1410 1409 1406 1404 1402 1400 1398 1396 1393 1390 1387 1385 1382 1379 1376 1373
1449 1446 1443 1441 1439 1436 1434 1432 1430 1429 1427 1427 1427 1426 1427 1427 1427 1428 1427 1425 1424 1422 1420 1419 1417 1415 1412 1411 1409 1407 1406 1404 1402 1401 1399 1397 1395 1392 1390 1387 1384 1382 1380 1377
1445 1442 1439 1436 1433 1430 1428 1425 1423 1421 1420 1419 1420 1420 1421 1421 1422 1423 1422 1421 1419 1418 1417 1416 1415 1413 1411 1410 1408 1406 1405 1404 1402 1401 1399 1398 1396 1394 1392 1389 1387 1385 1383 1381
1439 1436 1433 1430 1427 1424 1422 1419 1416 1414 1413 1412 1412 1413 1414 1415 1415 1416 1417 1417 1416 1415 1415 1414 1413 1412 1410 1409 1407 1406 1404 1403 1402 1401 1400 1398 1397 1395 1394 1392 1390 1388 1386 1385
1434 1431 1427 1424 1421 1418 1415 1413 1410 1408 1407 1405 1405 1406 1407 1409 1410 1411 1413 1413 1413 1413 1413 1412 1412 1410 1409 1407 1406 1404 1403 1402 1401 1400 1399 1399 1398 1396 1395 1394 1392 1391 1389 1388